Precipitable_Water
1.67 1.67 1.61 1.75 1.99 2.18 1.86 1.90 1.88 1.74 1.81 1.77 1.85 1.79 1.68 1.56 1.46 1.52 1.43 1.44 1.45 1.58
1.56 1.65 1.74 1.85 2.09 2.16 1.93 1.88 1.97 1.76 1.75 1.77 1.76 1.75 1.76 1.53 1.54 1.72 1.49 1.43 1.37 1.37
1.52 1.59 1.69 1.81 1.81 1.95 2.25 1.95 2.40 1.80 1.82 1.83 1.93 1.91 1.79 1.63 1.51 1.42 1.43 1.42 1.47 1.42
1.47 1.51 1.55 1.52 1.61 1.86 1.91 1.99 2.03 2.01 2.03 1.96 1.95 1.98 1.93 1.73 1.93 1.61 1.54 1.48 1.45 1.36
1.50 1.51 1.53 1.51 1.63 1.86 1.88 2.04 2.10 2.08 2.12 2.02 2.05 2.08 2.04 1.85 1.77 1.66 1.62 1.63 1.62 1.58
1.53 1.54 1.52 1.54 1.61 1.66 1.85 1.90 2.04 2.06 2.06 2.15 2.08 1.98 2.09 2.10 1.83 1.74 1.66 1.68 1.74 1.73
1.91 1.66 1.68 1.73 1.58 1.66 1.71 1.79 1.86 1.98 2.02 1.98 1.95 1.98 1.95 2.05 2.02 1.98 1.86 1.81 1.90 1.87
2.06 2.16 1.90 1.83 1.91 1.73 1.60 1.60 1.70 1.82 1.84 1.83 1.79 1.73 1.73 1.87 2.08 2.04 1.93 1.86 1.85 1.82
2.08 2.17 2.08 2.01 1.95 1.96 1.80 1.65 1.62 1.63 1.74 1.74 1.79 1.66 1.70 1.73 1.83 1.83 1.91 1.94 1.93 1.79
2.09 1.99 1.97 2.12 2.20 2.05 1.90 1.79 1.71 1.75 1.81 1.81 1.77 1.68 1.65 1.65 1.65 1.71 1.77 1.80 1.84 1.88
1.98 1.98 1.93 1.95 2.01 2.12 2.05 2.02 1.87 1.84 1.82 1.71 1.61 1.64 1.65 1.65 1.74 1.79 1.83 1.86 1.91 1.86
1.76 1.81 1.89 1.92 1.95 2.02 1.99 2.00 1.97 1.93 1.78 1.64 1.59 1.64 1.68 1.73 1.82 1.76 1.70 1.72 1.72 1.80
1.77 1.71 1.71 1.81 1.95 1.94 1.97 1.93 1.95 1.76 1.74 1.66 1.58 1.62 1.71 1.80 1.89 1.82 1.75 1.64 1.57 1.52
1.76 1.70 1.65 1.69 1.80 1.83 1.82 1.81 1.76 1.66 1.58 1.56 1.51 1.48 1.61 1.67 1.75 1.77 1.75 1.69 1.59 1.58
Wind_Speed
12 10 9 8 8 6 6 4 6 5 5 4 5 5 4 5 5 5 4 4 4 3
14 13 11 9 7 7 7 6 6 5 5 5 4 5 5 5 5 6 5 5 6 5
16 14 13 12 10 12 6 6 8 7 6 6 5 5 5 5 6 6 6 6 7 7
17 15 15 13 13 11 9 8 8 9 8 8 7 7 6 7 5 6 6 7 7 7
18 17 16 15 14 13 12 11 11 10 10 9 9 8 8 8 8 8 8 7 7 7
20 20 18 17 16 16 15 14 13 12 12 11 11 10 9 10 9 9 9 8 8 8
20 21 21 19 19 18 18 17 15 15 14 14 14 13 12 12 12 11 11 11 10 10
24 22 21 21 20 20 20 20 19 18 17 15 14 14 15 15 14 14 14 14 13 13
26 24 23 22 21 21 21 21 21 20 19 18 16 15 15 15 15 15 15 15 14 14
23 25 24 23 23 22 21 20 21 20 19 17 17 17 18 19 18 17 16 16 16 15
19 21 23 25 27 25 23 20 20 20 18 18 18 18 19 19 20 18 17 16 16 16
13 14 15 16 17 20 20 20 20 18 17 18 17 17 18 18 19 19 18 18 17 16
16 15 14 14 16 17 19 19 19 18 17 18 18 18 19 18 18 19 19 19 18 17
16 15 15 15 15 16 17 17 16 17 16 14 14 15 16 17 17 17 19 19 19 20
Wind_Direction
211 211 214 221 219 198 193 207 194 205 212 216 215 217 218 225 229 229 229 228 238 238
216 220 219 228 224 212 206 207 209 207 208 210 212 220 226 234 236 235 237 239 242 244
220 223 225 229 234 231 177 217 195 209 212 218 223 229 235 238 241 241 242 244 248 250
221 224 227 231 233 235 235 233 231 228 233 232 236 239 243 248 243 242 244 251 256 258
225 227 228 230 231 231 233 234 234 233 232 233 238 243 247 247 250 249 251 255 258 262
229 231 232 233 233 234 235 236 237 236 238 242 245 247 247 247 249 251 254 257 258 263
234 235 235 236 236 236 236 238 239 240 244 247 248 249 250 249 249 253 255 257 260 263
239 240 235 236 238 240 240 240 241 243 245 248 251 252 252 250 250 254 258 258 261 264
236 236 236 238 241 240 240 240 241 241 244 247 250 255 253 251 253 256 258 259 259 263
234 233 238 242 244 242 238 239 238 240 241 245 251 259 257 254 254 257 258 260 262 261
234 237 239 246 242 239 239 240 238 237 242 249 254 259 258 257 254 254 257 257 261 263
224 232 240 240 235 230 235 237 231 235 244 250 255 258 258 258 253 253 254 257 261 264
234 238 239 239 235 234 236 235 235 237 248 252 255 260 259 257 256 255 255 254 259 265
238 239 240 238 238 235 234 231 235 238 244 251 257 262 256 255 257 258 254 255 258 266